OneWeb SL0228

operational
NORAD ID: 48780 Int'l Des: 2021-045 Owner: ONEWEBN Country: UK Constellation: oneweb
LEOCIRCULARPOLARONEWEB_TYPE

OneWeb SL0228について

説明を読み込み中...

リアルタイム位置

3D地球を読み込み中...

次回通過

高度履歴

Altitude vs Time

uPlot chart will show altitude changes over time

軌道要素

1 48780U 21045P 26036.74415333 -.00000073 00000-0 -22674-3 0 9992
2 48780 87.9000 285.4140 0001556 70.7840 289.3459 13.15547795227042
Epoch: Feb 5, 2026 • Age: 14 hours

現在のステータス

高度 1211.1 km
速度 7.25 km/s
衛星直下点 -22.70°S, 145.24°W
打ち上げ日 May 28, 2021
運用期間 4.6 years
タイプ internet

技術仕様

分類 Payload
質量 148.00 kg
乾燥質量 140.00 kg
総質量 148.00 kg
長さ 1.30 m
直径 1.00 m
スパン 5.00 m
形状 Trapezoid+2 pan
製造者 ONEWUS
バスタイプ ARROW
フェーズステータス In Orbit
所有者/国 ONEWEBN/UK

大規模コンステレーション

Loading constellations...